| time (UTC) | temp C | wind direction | speed KPH | gust KPH | rain 1hr cm | rain 24hr cm | rain mn cm | humidity % | barometer mb |
| 20260507184549 | 7 | 26 | 4.8 | 11.3 | 0.00 | 0.00 | 0.00 | 69 | 1011.3 |
| 20260507183045 | 7 | 19 | 4.8 | 8.0 | 0.00 | 0.00 | 0.00 | 70 | 1011.5 |
| 20260507181547 | 6 | 19 | 4.8 | 8.0 | 0.00 | 0.00 | 0.00 | 73 | 1011.6 |
| 20260507180045 | 7 | 11 | 4.8 | 8.0 | 0.00 | 0.00 | 0.00 | 71 | 1011.6 |
| 20260507174546 | 7 | 5 | 1.6 | 6.4 | 0.00 | 0.00 | 0.00 | 72 | 1011.6 |
| 20260507173115 | 6 | 11 | 6.4 | 12.9 | 0.00 | 0.00 | 0.00 | 73 | 1011.7 |
| 20260507171544 | 6 | 360 | 9.7 | 14.5 | 0.00 | 0.00 | 0.00 | 76 | 1011.9 |
| 20260507170049 | 7 | 5 | 9.7 | 14.5 | 0.00 | 0.00 | 0.00 | 74 | 1012.0 |
| 20260507164542 | 7 | 5 | 6.4 | 12.9 | 0.00 | 0.00 | 0.00 | 74 | 1012.1 |
| 20260507163046 | 7 | 5 | 8.0 | 12.9 | 0.00 | 0.00 | 0.00 | 73 | 1012.2 |
| 20260507161550 | 7 | 355 | 8.0 | 9.7 | 0.00 | 0.00 | 0.00 | 73 | 1012.4 |
| 20260507160053 | 7 | 345 | 8.0 | 12.9 | 0.00 | 0.00 | 0.00 | 72 | 1012.5 |
| 20260507154546 | 7 | 342 | 8.0 | 14.5 | 0.00 | 0.03 | 0.00 | 72 | 1012.7 |
| 20260507153041 | 7 | 340 | 12.9 | 16.1 | 0.00 | 0.03 | 0.00 | 71 | 1012.8 |
| 20260507151547 | 7 | 309 | 8.0 | 12.9 | 0.00 | 0.03 | 0.00 | 68 | 1012.7 |
| 20260507150047 | 7 | 293 | 4.8 | 9.7 | 0.00 | 0.03 | 0.00 | 69 | 1012.7 |
| 20260507144545 | 7 | 277 | 6.4 | 11.3 | 0.00 | 0.05 | 0.00 | 67 | 1012.8 |
| 20260507143058 | 7 | 277 | 4.8 | 11.3 | 0.00 | 0.05 | 0.00 | 70 | 1012.9 |
| 20260507141554 | 6 | 284 | 8.0 | 12.9 | 0.00 | 0.05 | 0.00 | 72 | 1013.0 |
| 20260507140041 | 6 | 304 | 11.3 | 17.7 | 0.00 | 0.05 | 0.00 | 75 | 1013.2 |
| 20260507134549 | 6 | 322 | 11.3 | 17.7 | 0.00 | 0.08 | 0.00 | 76 | 1013.2 |
| 20260507133118 | 6 | 333 | 16.1 | 20.9 | 0.00 | 0.08 | 0.00 | 75 | 1013.4 |
| 20260507131548 | 6 | 305 | 14.5 | 19.3 | 0.00 | 0.08 | 0.00 | 73 | 1013.3 |
| 20260507130057 | 6 | 313 | 14.5 | 20.9 | 0.00 | 0.08 | 0.00 | 72 | 1013.1 |
| 20260507124542 | 6 | 309 | 14.5 | 22.5 | 0.00 | 0.13 | 0.00 | 74 | 1013.1 |
| 20260507123049 | 6 | 309 | 16.1 | 22.5 | 0.00 | 0.13 | 0.00 | 76 | 1013.1 |
| 20260507121544 | 5 | 323 | 14.5 | 19.3 | 0.00 | 0.13 | 0.00 | 78 | 1013.2 |
| 20260507120045 | 5 | 288 | 4.8 | 12.9 | 0.00 | 0.13 | 0.00 | 80 | 1013.0 |
| 20260507114557 | 5 | 212 | 3.2 | 9.7 | 0.00 | 0.18 | 0.00 | 83 | 1013.0 |
| 20260507113041 | 4 | 212 | 6.4 | 9.7 | 0.00 | 0.18 | 0.00 | 82 | 1013.0 |
| 20260507111545 | 4 | 212 | 4.8 | 9.7 | 0.00 | 0.18 | 0.00 | 84 | 1012.9 |
| 20260507110046 | 3 | 212 | 4.8 | 6.4 | 0.00 | 0.18 | 0.00 | 85 | 1012.5 |
| 20260507104543 | 3 | 212 | 3.2 | 6.4 | 0.00 | 0.41 | 0.00 | 85 | 1012.5 |
| 20260507103045 | 3 | 212 | 4.8 | 8.0 | 0.00 | 0.41 | 0.00 | 85 | 1012.3 |
| 20260507101548 | 3 | 209 | 4.8 | 9.7 | 0.00 | 0.41 | 0.00 | 84 | 1012.4 |
| 20260507100050 | 3 | 211 | 6.4 | 9.7 | 0.00 | 0.41 | 0.00 | 84 | 1012.3 |
| 20260507094555 | 2 | 211 | 6.4 | 9.7 | 0.00 | 0.51 | 0.00 | 85 | 1012.1 |
| 20260507093043 | 2 | 211 | 4.8 | 9.7 | 0.00 | 0.51 | 0.00 | 86 | 1012.1 |
| 20260507091542 | 2 | 210 | 6.4 | 8.0 | 0.00 | 0.51 | 0.00 | 85 | 1012.4 |
| 20260507090042 | 2 | 218 | 3.2 | 6.4 | 0.00 | 0.51 | 0.00 | 85 | 1012.2 |
| 20260507084544 | 3 | 213 | 4.8 | 9.7 | 0.00 | 0.66 | 0.00 | 86 | 1012.3 |
| 20260507083052 | 3 | 213 | 4.8 | 9.7 | 0.00 | 0.66 | 0.00 | 86 | 1012.3 |
| 20260507081543 | 3 | 209 | 4.8 | 9.7 | 0.00 | 0.66 | 0.00 | 86 | 1012.2 |
| 20260507080053 | 3 | 209 | 4.8 | 8.0 | 0.00 | 0.66 | 0.00 | 84 | 1012.3 |
| 20260507074552 | 5 | 221 | 4.8 | 11.3 | 0.00 | 0.91 | 0.00 | 84 | 1012.3 |
| 20260507073049 | 5 | 281 | 9.7 | 19.3 | 0.00 | 0.91 | 0.00 | 86 | 1012.6 |
| 20260507071546 | 5 | 275 | 9.7 | 14.5 | 0.00 | 0.91 | 0.00 | 84 | 1012.5 |
| 20260507070054 | 5 | 242 | 6.4 | 11.3 | 0.00 | 0.91 | 0.00 | 80 | 1012.4 |
| 20260507064550 | 6 | 221 | 6.4 | 19.3 | 0.00 | 1.19 | 0.00 | 75 | 1012.3 |
| 20260507063046 | 6 | 300 | 16.1 | 20.9 | 0.00 | 1.19 | 0.00 | 77 | 1012.1 |
| 20260507061548 | 6 | 296 | 14.5 | 22.5 | 0.00 | 1.19 | 0.00 | 77 | 1012.1 |
| 20260507060048 | 6 | 295 | 19.3 | 25.7 | 0.00 | 1.19 | 0.00 | 75 | 1012.4 |
| 20260507054546 | 6 | 293 | 20.9 | 27.4 | 0.00 | 1.42 | 0.00 | 76 | 1012.6 |
| 20260507053044 | 6 | 291 | 20.9 | 30.6 | 0.00 | 1.42 | 0.00 | 76 | 1012.6 |
| 20260507051544 | 6 | 287 | 20.9 | 29.0 | 0.00 | 1.42 | 0.00 | 76 | 1012.7 |
| 20260507050046 | 6 | 295 | 22.5 | 30.6 | 0.00 | 1.42 | 0.00 | 77 | 1012.8 |
| 20260507044555 | 6 | 290 | 19.3 | 25.7 | 0.00 | 1.55 | 0.00 | 79 | 1012.7 |
| 20260507043048 | 6 | 290 | 20.9 | 27.4 | 0.00 | 1.55 | 0.00 | 79 | 1012.6 |
| 20260507041547 | 7 | 302 | 20.9 | 27.4 | 0.00 | 1.55 | 0.00 | 85 | 1012.5 |
| 20260507040048 | 7 | 284 | 20.9 | 30.6 | 0.00 | 1.55 | 0.00 | 89 | 1012.5 |
| 20260507034547 | 6 | 300 | 19.3 | 25.7 | 0.00 | 1.57 | 1.55 | 91 | 1012.5 |
| 20260507033100 | 6 | 286 | 16.1 | 22.5 | 0.00 | 1.57 | 1.55 | 92 | 1012.3 |
| 20260507031555 | 6 | 284 | 14.5 | 19.3 | 0.00 | 1.57 | 1.55 | 93 | 1012.2 |
| 20260507024602 | 6 | 265 | 12.9 | 17.7 | 0.00 | 1.65 | 1.55 | 93 | 1012.1 |
| 20260507023043 | 5 | 276 | 9.7 | 16.1 | 0.00 | 1.65 | 1.55 | 92 | 1012.3 |
| 20260507021552 | 5 | 263 | 9.7 | 12.9 | 0.00 | 1.65 | 1.55 | 92 | 1012.3 |
| 20260507020056 | 5 | 243 | 8.0 | 14.5 | 0.00 | 1.65 | 1.55 | 92 | 1012.3 |
| 20260507014552 | 6 | 298 | 14.5 | 22.5 | 0.00 | 1.70 | 1.55 | 93 | 1012.2 |
| 20260507013042 | 5 | 302 | 16.1 | 25.7 | 0.00 | 1.70 | 1.55 | 92 | 1012.4 |
| 20260507011548 | 5 | 305 | 22.5 | 27.4 | 0.00 | 1.70 | 1.55 | 91 | 1012.2 |
| 20260507010047 | 5 | 315 | 20.9 | 25.7 | 0.00 | 1.70 | 1.55 | 90 | 1012.1 |
| 20260507004545 | 6 | 329 | 19.3 | 25.7 | 0.00 | 1.80 | 1.55 | 87 | 1011.7 |
| 20260507003045 | 6 | 329 | 9.7 | 14.5 | 0.00 | 1.80 | 1.55 | 87 | 1011.7 |
| 20260507001547 | 6 | 45 | 1.6 | 4.8 | 0.00 | 1.80 | 1.55 | 85 | 1011.2 |
| 20260507000049 | 6 | 0 | 1.6 | 6.4 | 0.00 | 1.80 | 1.55 | 85 | 1011.1 |
| 20260506234554 | 7 | 45 | 3.2 | 6.4 | 0.00 | 1.91 | 1.55 | 86 | 1011.1 |
| 20260506233050 | 7 | 45 | 4.8 | 9.7 | 0.00 | 1.91 | 1.55 | 86 | 1010.8 |
| 20260506231552 | 7 | 53 | 4.8 | 9.7 | 0.00 | 1.91 | 1.55 | 85 | 1010.7 |
| 20260506230041 | 7 | 84 | 0.0 | 4.8 | 0.00 | 1.91 | 1.55 | 85 | 1010.3 |
| 20260506224545 | 7 | 84 | 1.6 | 4.8 | 0.00 | 1.96 | 1.55 | 84 | 1009.9 |
| 20260506223045 | 7 | 84 | 3.2 | 6.4 | 0.00 | 1.96 | 1.55 | 84 | 1009.7 |
| 20260506221542 | 7 | 0 | 1.6 | 4.8 | 0.00 | 1.96 | 1.55 | 83 | 1009.9 |
| 20260506220051 | 7 | 0 | 0.0 | 0.0 | 0.00 | 1.96 | 1.55 | 83 | 1010.0 |
| 20260506214549 | 7 | 0 | 0.0 | 0.0 | 0.00 | 1.96 | 1.55 | 82 | 1010.2 |
| 20260506213047 | 7 | 0 | 0.0 | 3.2 | 0.00 | 1.96 | 1.55 | 82 | 1010.1 |
| 20260506211544 | 7 | 329 | 3.2 | 6.4 | 0.00 | 1.96 | 1.55 | 83 | 1010.1 |
| 20260506210048 | 7 | 0 | 0.0 | 3.2 | 0.00 | 1.96 | 1.55 | 85 | 1009.9 |
| 20260506204543 | 6 | 0 | 0.0 | 3.2 | 0.00 | 1.96 | 1.55 | 85 | 1010.0 |
| 20260506203042 | 7 | 329 | 0.0 | 4.8 | 0.00 | 1.96 | 1.55 | 86 | 1010.0 |
| 20260506201545 | 7 | 329 | 3.2 | 6.4 | 0.00 | 1.96 | 1.55 | 87 | 1010.1 |
| 20260506200044 | 6 | 329 | 1.6 | 6.4 | 0.00 | 1.96 | 1.55 | 87 | 1010.1 |
| 20260506194543 | 6 | 329 | 3.2 | 6.4 | 0.00 | 1.96 | 1.55 | 88 | 1010.0 |
| 20260506193048 | 6 | 329 | 0.0 | 6.4 | 0.00 | 1.96 | 1.55 | 89 | 1010.0 |
| 20260506191550 | 6 | 329 | 4.8 | 8.0 | 0.00 | 1.96 | 1.55 | 90 | 1010.1 |
| 20260506190049 | 6 | 329 | 4.8 | 8.0 | 0.00 | 1.96 | 1.55 | 91 | 1010.1 |